Location: Gars am Kamp
(48.5989°N, 15.6622°E)
Time: 13:35:07
(UTC+02:00)

ISS - Visible Passes

Search period start: 21 October 2019 00:00
Search period end: 30 October 2019 23:00
Orbit: 411 x 421 km, 51.6° (Epoch: 21 October)

Date Brightness Start Highest point End Pass type
(mag) Time Alt. Az. Time Alt. Az. Time Alt. Az.
24 Oct -1.2 06:49:53 10° SSW 06:52:33 22° SE 06:55:12 10° E visible
25 Oct -0.8 06:02:14 10° S 06:04:08 14° SE 06:06:02 10° ESE visible
26 Oct -2.7 06:48:35 10° SW 06:51:50 46° SSE 06:55:04 10° ENE visible
27 Oct -2.1 05:00:46 13° SSW 05:03:19 31° SE 05:06:19 10° E visible
28 Oct -1.6 04:14:37 20° SE 04:14:49 20° SE 04:17:24 10° E visible
28 Oct -3.8 05:47:51 10° WSW 05:51:13 89° SSE 05:54:36 10° ENE visible
29 Oct -3.5 05:01:15 32° SW 05:02:35 64° SSE 05:05:57 10° ENE visible
30 Oct -2.2 04:14:50 35° ESE 04:14:50 35° ESE 04:17:14 10° ENE visible
30 Oct -3.6 05:47:44 12° W 05:50:42 59° NNW 05:54:02 10° ENE visible
